www.pogodaiklimat.ru

Погода и климат >> Архив погоды >> Бразилия >> Параиба >> Патос


ПОГОДА в Патосе

  • Прогноз погоды в Патосе
  • Монитор погоды в Патосе

АРХИВ ПОГОДЫ в Патосе

Время (UTC), дата Ветер
(напр.,м/с)
 
Видим.   Явления Облачность Т
(С)
Тd
(С)
f
(%)
Тe
(С)
Тes
(С)
Комфортность P
(гПа)
Po
(гПа)
Тmin
(С)
Tmax
(С)
R
(мм)
R24
(мм)
S
(см)
19 8.02 ЮВ 2
{3}
н/о н/о +34.6 +3.4 14 +32 +32 жарко 1005.9 976.9
20 8.02 ЮВ 2
{4}
н/о н/о +33.1 +3.6 16 +30 +30 жарко 1006.4 977.2
21 8.02 ЮВ 1
{3}
н/о н/о +31.3 +5.9 20 +29 +29 жарко 1007.0 977.6
22 8.02 СВ 1
{3}
н/о н/о +29.3 +11.6 33 +30 +30 жарко 1008.4 978.8
23 8.02 В 2
{3}
н/о н/о +29.4 +9.6 29 +29 +29 жарко 1009.3 979.7
00 9.02 В 3
{5}
н/о н/о +29.0 +10.2 31 +29 +29 жарко 1010.3 980.6
01 9.02 В 3
{5}
н/о н/о +27.6 +13.3 41 +29 +29 жарко 1011.1 981.3
02 9.02 В 2
{6}
н/о н/о +26.3 +14.9 49 +29 +29 жарко 1011.5 981.5
03 9.02 В 2
{4}
н/о н/о +25.4 +14.7 52 +28 +28 жарко 1011.2 981.1
04 9.02 В 2
{4}
н/о н/о +24.6 +14.4 53 +27 +27 жарко 1010.9 980.8
05 9.02 В 2
{3}
н/о н/о +23.9 +14.4 55 +26 +26 жарко 1011.0 980.8
06 9.02 ЮВ 1
{3}
н/о н/о +23.2 +15.1 60 +27 +27 душно 1010.9 980.6
07 9.02 ЮВ 1
{2}
н/о н/о +22.5 +15.5 65 +26 +26 жарко 1011.1 980.7
08 9.02 В 2
{3}
н/о н/о +22.7 +16.7 69 +27 +27 душно 1011.4 981.1
09 9.02 В 1
{3}
н/о н/о +23.7 +16.7 65 +27 +27 жарко 1011.7 981.4
10 9.02 В 1
{2}
н/о н/о +25.8 +16.9 58 +30 +30 душно 1012.0 981.9
11 9.02 В 3
{5}
н/о н/о +27.1 +16.2 51 +30 +30 душно 1012.0 982.1
12 9.02 В 3
{5}
н/о н/о +29.4 +14.9 41 +32 +32 душно 1012.2 982.5
13 9.02 В 3
{6}
н/о н/о +30.3 +14.2 37 +32 +32 жарко 1012.0 982.4
14 9.02 ЮВ 2
{5}
н/о н/о +30.8 +12.7 33 +32 +32 жарко 1011.4 981.9
15 9.02 В 3
{5}
н/о н/о +32.7 +10.0 25 +32 +32 жарко 1010.2 980.9
16 9.02 ЮВ 2
{5}
н/о н/о +34.4 +9.6 22 +33 +33 жарко 1008.9 979.8
17 9.02 В 3
{4}
н/о н/о +35.0 +6.5 17 +33 +33 жарко 1007.8 978.8
18 9.02 ЮВ 3
{5}
н/о н/о +35.5 +2.5 13 +32 +32 жарко 1007.3 978.3
19 9.02 ЮВ 2
{4}
н/о н/о +35.8 +0.4 11 +32 +32 жарко 1006.8 977.9
20 9.02 В 2
{4}
н/о н/о +34.4 +2.1 13 +31 +31 жарко 1007.2 978.1
21 9.02 В 2
{4}
н/о н/о +32.8 +4.8 17 +30 +30 жарко 1007.8 978.5
22 9.02 В 2
{3}
н/о н/о +31.6 +6.5 21 +30 +30 жарко 1008.8 979.4
23 9.02 В 3
{5}
н/о н/о +30.6 +9.0 26 +30 +30 жарко 1009.8 980.3
00 10.02 В 2
{5}
н/о н/о +29.3 +11.0 32 +30 +30 жарко 1010.7 981.0
01 10.02 В 3
{5}
н/о н/о +28.2 +12.0 37 +29 +29 жарко 1011.1 981.3
02 10.02 ЮВ 2
{5}
н/о н/о +27.1 +12.8 41 +29 +29 жарко 1011.1 981.2
03 10.02 В 2
{6}
н/о н/о +26.3 +14.0 47 +29 +29 жарко 1011.0 981.0
04 10.02 В 3
{4}
н/о н/о +25.6 +13.7 48 +28 +28 жарко 1010.9 980.9
05 10.02 В 2
{5}
н/о н/о +24.8 +14.2 52 +27 +27 жарко 1010.6 980.5
06 10.02 В 2
{4}
н/о н/о +24.4 +15.1 56 +27 +27 жарко 1010.5 980.4
07 10.02 В 1
{3}
н/о н/о +23.2 +15.6 62 +27 +27 душно 1011.2 980.9
08 10.02 В 1
{2}
н/о н/о +23.2 +16.0 64 +28 +28 душно 1011.9 981.6
09 10.02 штиль 0
{2}
н/о н/о +23.6 +16.3 64 +27 +27 жарко 1012.2 981.9
10 10.02 ЮВ 2
{4}
н/о н/о +26.4 +15.6 51 +29 +29 жарко 1011.9 981.9
11 10.02 В 3
{4}
н/о н/о +28.3 +14.9 44 +31 +31 душно 1012.2 982.4
12 10.02 В 3
{5}
н/о н/о +29.2 +14.2 40 +31 +31 жарко 1011.9 982.2
13 10.02 В 3
{5}
н/о н/о +31.4 +12.8 32 +32 +32 жарко 1011.6 982.1
14 10.02 В 3
{5}
н/о н/о +32.5 +11.5 28 +33 +33 жарко 1011.2 981.8
15 10.02 В 3
{5}
н/о н/о +33.6 +8.9 22 +32 +32 жарко 1010.0 980.8
16 10.02 ЮВ 3
{5}
н/о н/о +35.1 +6.9 18 +33 +33 жарко 1009.2 980.1
17 10.02 ЮВ 2
{5}
н/о н/о +34.3 +6.5 18 +32 +32 жарко 1008.5 979.4
18 10.02 В 3
{5}
н/о н/о +33.7 +7.3 20 +32 +32 жарко 1008.2 979.0
19 10.02 В 2
{4}
н/о н/о +33.2 +8.2 21 +32 +32 жарко 1008.2 979.0
20 10.02 В 4
{7}
н/о н/о +31.2 +9.9 27 +31 +31 жарко 1009.3 979.9
21 10.02 ЮВ 2
{7}
н/о н/о +29.6 +12.3 34 +30 +30 жарко 1010.4 980.8
22 10.02 В 2
{5}
н/о н/о +28.4 +12.5 37 +30 +30 жарко 1011.4 981.6
23 10.02 В 2
{4}
н/о н/о +26.1 +16.9 57 +30 +30 душно 1011.7 981.7
00 11.02 В 2
{3}
н/о н/о +26.8 +16.4 53 +30 +30 душно 1012.7 982.7
02 11.02 В 2
{4}
н/о н/о +26.4 +13.6 45 +28 +28 жарко 1013.1 983.1
03 11.02 ЮВ 3
{5}
н/о н/о +26.2 +13.7 46 +28 +28 жарко 1012.4 982.4
04 11.02 ЮВ 3
{5}
н/о н/о +25.6 +14.5 50 +28 +28 жарко 1012.0 981.9
05 11.02 ЮВ 1
{5}
н/о н/о +25.0 +14.8 53 +28 +28 жарко 1011.8 981.7
06 11.02 ЮВ 1
{3}
н/о н/о +24.6 +15.3 56 +28 +28 душно 1012.2 982.0
07 11.02 ЮВ 2
{3}
н/о н/о +24.2 +15.4 58 +27 +27 жарко 1012.3 982.1
08 11.02 штиль 0
{3}
н/о н/о +23.6 +15.1 59 +26 +26 жарко 1012.9 982.6
09 11.02 ЮВ 1
{2}
н/о н/о +24.6 +15.6 57 +28 +28 душно 1013.2 983.0
10 11.02 ЮВ 1
{3}
н/о н/о +26.8 +15.1 49 +30 +30 душно 1013.8 983.8
11 11.02 ЮВ 2
{4}
н/о н/о +28.8 +14.6 42 +31 +31 жарко 1013.8 984.0
12 11.02 В 2
{5}
н/о н/о +29.7 +14.7 40 +32 +32 душно 1013.7 984.0
13 11.02 В 3
{5}
н/о н/о +30.1 +11.7 32 +31 +31 жарко 1013.5 983.8
14 11.02 В 3
{5}
н/о н/о +32.0 +11.4 28 +32 +32 жарко 1012.9 983.4
15 11.02 В 3
{5}
н/о н/о +33.7 +9.0 22 +32 +32 жарко 1011.5 982.2
16 11.02 В 2
{5}
н/о н/о +35.0 +7.2 18 +33 +33 жарко 1010.1 981.0
17 11.02 В 2
{4}
н/о н/о +35.7 +3.4 13 +33 +33 жарко 1009.1 980.1
18 11.02 ЮВ 2
{4}
н/о н/о +35.8 +4.4 14 +33 +33 жарко 1008.3 979.3
19 11.02 ЮВ 1
{4}
н/о н/о +35.3 +4.6 15 +33 +33 жарко 1008.0 979.0
20 11.02 ЮВ 2
{3}
н/о н/о +35.0 +1.7 12 +32 +32 жарко 1008.2 979.1
21 11.02 ЮВ 2
{4}
н/о н/о +33.8 +4.7 16 +31 +31 жарко 1008.8 979.6
22 11.02 В 3
{6}
н/о н/о +31.9 +9.5 25 +31 +31 жарко 1009.7 980.3
23 11.02 В 3
{6}
н/о н/о +30.6 +12.6 33 +31 +31 жарко 1010.6 981.1
00 12.02 В 3
{5}
н/о н/о +29.8 +14.0 38 +32 +32 душно 1011.4 981.8
01 12.02 В 3
{5}
н/о н/о +28.5 +13.4 39 +30 +30 жарко 1011.7 981.9
02 12.02 В 3
{5}
н/о н/о +27.4 +12.9 41 +29 +29 жарко 1012.0 982.1
03 12.02 В 2
{5}
н/о н/о +26.5 +13.7 45 +29 +29 жарко 1011.9 981.9
04 12.02 В 2
{4}
н/о н/о +25.8 +14.7 50 +28 +28 жарко 1011.5 981.5
05 12.02 ЮВ 2
{4}
н/о н/о +25.3 +14.8 52 +28 +28 жарко 1011.5 981.4
06 12.02 ЮВ 2
{4}
н/о н/о +24.9 +15.4 56 +28 +28 жарко 1011.8 981.7
07 12.02 Ю 1
{4}
н/о н/о +24.3 +15.0 56 +27 +27 жарко 1011.9 981.7
08 12.02 штиль 0
{2}
н/о н/о +23.3 +15.1 60 +27 +27 душно 1012.6 982.3
09 12.02 Ю 1
{2}
н/о н/о +24.5 +15.1 56 +27 +27 жарко 1012.6 982.4
10 12.02 ЮВ 1
{4}
н/о н/о +26.8 +14.4 47 +29 +29 жарко 1013.2 983.2
11 12.02 ЮВ 2
{3}
н/о н/о +29.2 +12.9 37 +31 +31 жарко 1013.5 983.7
12 12.02 В 3
{4}
н/о н/о +30.4 +12.2 33 +31 +31 жарко 1013.7 984.0
13 12.02 В 2
{4}
н/о н/о +32.0 +11.1 28 +32 +32 жарко 1013.0 983.5
14 12.02 В 2
{4}
н/о н/о +33.0 +10.4 25 +32 +32 жарко 1012.0 982.6
15 12.02 Ю 1
{4}
н/о н/о +34.2 +6.6 18 +32 +32 жарко 1010.6 981.4
16 12.02 В 2
{5}
н/о н/о +35.7 +6.2 16 +33 +33 жарко 1009.0 980.0
17 12.02 В 2
{4}
н/о н/о +36.1 +3.3 13 +33 +33 жарко 1008.3 979.3
18 12.02 В 3
{5}
н/о н/о +35.3 +3.6 14 +32 +32 жарко 1008.2 979.2
19 12.02 В 3
{5}
н/о н/о +35.3 +3.5 14 +32 +32 жарко 1008.4 979.4
20 12.02 В 2
{4}
н/о н/о +34.3 +5.0 16 +32 +32 жарко 1008.3 979.2
21 12.02 В 2
{3}
н/о н/о +33.7 +4.9 17 +31 +31 жарко 1008.5 979.3
22 12.02 В 2
{3}
н/о н/о +32.3 +6.9 21 +31 +31 жарко 1009.4 980.1
23 12.02 В 1
{3}
н/о н/о +31.0 +9.0 26 +30 +30 жарко 1010.2 980.7
00 13.02 В 3
{5}
н/о н/о +30.6 +11.3 30 +31 +31 жарко 1011.4 981.8
01 13.02 В 3
{5}
н/о н/о +29.2 +13.2 37 +31 +31 жарко 1012.0 982.3
02 13.02 В 2
{5}
н/о н/о +28.5 +14.0 41 +30 +30 жарко 1012.1 982.3
03 13.02 В 2
{3}
н/о н/о +27.8 +14.6 44 +30 +30 жарко 1011.4 981.6
04 13.02 В 2
{3}
н/о н/о +26.9 +15.4 49 +30 +30 душно 1010.8 980.9
05 13.02 В 2
{4}
н/о н/о +26.8 +14.7 47 +29 +29 жарко 1011.0 981.1
06 13.02 В 2
{4}
н/о н/о +26.3 +15.2 50 +29 +29 жарко 1011.3 981.3
07 13.02 В 1
{3}
н/о н/о +25.9 +15.6 53 +29 +29 душно 1011.8 981.8
08 13.02 В 1
{2}
н/о н/о +25.5 +16.0 56 +29 +29 душно 1012.0 981.9
09 13.02 В 1
{2}
н/о н/о +25.6 +16.2 56 +29 +29 душно 1012.7 982.6
10 13.02 В 1
{2}
н/о н/о +26.1 +16.4 55 +30 +30 душно 1013.3 983.2
11 13.02 В 1
{2}
н/о н/о +27.1 +16.7 53 +31 +31 душно 1013.8 983.8
12 13.02 ЮВ 1
{2}
н/о н/о +29.0 +16.0 45 +32 +32 душно 1014.4 984.6
13 13.02 В 2
{3}
н/о н/о +30.9 +15.1 38 +33 +33 душно 1013.0 983.4
14 13.02 Ю 1
{3}
н/о н/о +31.7 +13.4 33 +33 +33 жарко 1012.7 983.2
15 13.02 В 2
{3}
н/о н/о +32.0 +13.5 33 +33 +33 жарко 1011.8 982.4
16 13.02 СВ 1
{3}
н/о н/о +33.7 +12.8 28 +34 +34 очень
жарко
1010.5 981.3
17 13.02 В 3
{6}
н/о н/о +24.5 +18.3 68 +29 +29 душно 1012.5 982.3 1
18 13.02 ЮВ 1
{5}
н/о н/о +23.1 +20.8 87 +31 +31 очень
душно
1012.2 981.9 6
19 13.02 В 2
{4}
н/о н/о +23.4 +19.5 79 +30 +30 очень
душно
1012.4 982.1 0.2
20 13.02 В 2
{3}
н/о н/о +23.3 +19.4 79 +30 +30 очень
душно
1012.8 982.5 1
21 13.02 штиль 0
{4}
н/о н/о +22.8 +18.8 78 +29 +29 очень
душно
1011.4 981.1 0.2
22 13.02 В 1
{2}
н/о н/о +23.1 +19.2 79 +29 +29 очень
душно
1011.6 981.3
23 13.02 штиль 0
{2}
н/о н/о +23.5 +19.4 78 +29 +29 душно 1013.6 983.3
00 14.02 штиль 0
{1}
н/о н/о +23.8 +19.7 78 +29 +29 душно 1015.6 985.2
01 14.02 штиль 0 н/о н/о +23.7 +19.9 79 +29 +29 душно 1015.9 985.5
02 14.02 штиль 0
{1}
н/о н/о +23.6 +19.5 78 +29 +29 душно 1015.2 984.8
03 14.02 штиль 0 н/о н/о +23.7 +19.7 78 +29 +29 душно 1015.3 984.9 0.2
04 14.02 штиль 0 н/о н/о +23.3 +20.1 82 +30 +30 очень
душно
1014.9 984.5 0.2
05 14.02 штиль 0 н/о н/о +23.4 +20.7 85 +31 +31 очень
душно
1014.7 984.3
06 14.02 штиль 0 н/о н/о +23.4 +21.6 90 +32 +32 очень
душно
1014.9 984.5 0.4
07 14.02 штиль 0
{2}
н/о н/о +23.2 +21.7 91 +31 +31 очень
душно
1014.4 984.0 0.4
08 14.02 штиль 0
{1}
н/о н/о +23.2 +22.2 94 +32 +32 очень
душно
1014.0 983.6
09 14.02 ЮВ 1
{2}
н/о н/о +23.1 +22.9 99 +32 +32 очень
душно
1013.3 982.9
10 14.02 В 1
{2}
н/о н/о +23.4 +23.4 100 +33 +33 очень
душно
1013.8 983.5
11 14.02 штиль 0
{2}
н/о н/о +24.3 +22.5 90 +32 +32 очень
душно
1013.8 983.5
12 14.02 штиль 0
{2}
н/о н/о +25.2 +20.7 76 +31 +31 очень
душно
1013.8 983.6
13 14.02 ЮЗ 1
{2}
н/о н/о +25.9 +19.7 69 +32 +32 очень
душно
1013.8 983.7
14 14.02 З 1
{2}
н/о н/о +26.1 +19.6 67 +32 +32 очень
душно
1013.7 983.6
15 14.02 ЮВ 1
{1}
н/о н/о +26.8 +19.2 63 +32 +32 очень
душно
1012.6 982.6
16 14.02 СЗ 2
{3}
н/о н/о +27.8 +19.2 60 +33 +33 очень
душно
1012.0 982.1
17 14.02 СЗ 1
{3}
н/о н/о +29.3 +18.6 53 +34 +34 очень
душно
1011.1 981.4
18 14.02 штиль 0
{2}
н/о н/о +31.4 +17.5 43 +35 +35 очень
душно
1010.5 981.0
19 14.02 штиль 0
{2}
н/о н/о +32.1 +16.0 38 +35 +35 очень
душно
1009.9 980.5
20 14.02 штиль 0
{2}
н/о н/о +31.6 +15.7 38 +34 +34 душно 1010.1 980.7
21 14.02 СВ 3
{6}
н/о н/о +25.8 +14.9 51 +29 +29 душно 1012.3 982.2 0.2
22 14.02 В 1
{5}
н/о н/о +25.7 +15.1 52 +29 +29 душно 1012.5 982.4
23 14.02 штиль 0
{2}
н/о н/о +25.7 +16.8 58 +29 +29 душно 1013.2 983.1
00 15.02 СЗ 1
{2}
н/о н/о +25.5 +17.5 61 +30 +30 душно 1014.2 984.1
01 15.02 штиль 0
{1}
н/о н/о +25.4 +18.0 64 +30 +30 душно 1014.5 984.3
02 15.02 Ю 1
{2}
н/о н/о +25.4 +18.2 64 +30 +30 душно 1014.6 984.4
03 15.02 штиль 0
{2}
н/о н/о +25.4 +18.7 66 +30 +30 душно 1014.1 983.9
04 15.02 СВ 1
{3}
н/о н/о +24.7 +19.2 71 +30 +30 очень
душно
1013.9 983.7
05 15.02 штиль 0
{2}
н/о н/о +25.1 +19.5 71 +30 +30 душно 1013.3 983.1
06 15.02 З 1
{2}
н/о н/о +25.2 +19.3 70 +30 +30 душно 1013.0 982.9
07 15.02 З 1
{2}
н/о н/о +24.8 +20.1 75 +30 +30 душно 1013.3 983.1
08 15.02 З 1
{2}
н/о н/о +24.7 +20.4 77 +31 +31 очень
душно
1013.9 983.7
09 15.02 ЮЗ 1
{2}
н/о н/о +24.4 +19.9 76 +30 +30 очень
душно
1014.5 984.2
10 15.02 ЮЗ 1
{2}
н/о н/о +24.9 +20.3 76 +31 +31 очень
душно
1014.5 984.3
11 15.02 штиль 0
{1}
н/о н/о +25.8 +19.9 70 +32 +32 очень
душно
1014.4 984.3
12 15.02 СВ 1
{2}
н/о н/о +28.2 +19.5 59 +34 +34 очень
душно
1014.0 984.1
13 15.02 СВ 1
{3}
н/о н/о +29.9 +18.2 49 +34 +34 очень
душно
1013.5 983.8
14 15.02 С 1
{3}
н/о н/о +31.6 +17.1 42 +35 +35 очень
душно
1012.7 983.2
15 15.02 С 2
{3}
н/о н/о +31.4 +15.9 39 +34 +34 душно 1011.8 982.3
17 15.02 ЮЗ 2
{3}
н/о н/о +34.4 +11.4 25 +34 +34 очень
жарко
1008.8 979.7

 

Местоположение метеостанции Патос (Параиба, Бразилия): широта -7.08 долгота -37.27 высота над уровнем моря 282 м.

В архиве по умолчанию представлена погода в Патосе за последнюю неделю. Архивные данные за месяц целиком и за предыдущие месяцы, начиная с января 2011 года, Вы можете получить, выбрав интересующий диапазон дат из раскрывающегося списка и нажав кнопку "Ввод!".


*Определитесь, кто Вы:
робот инопланетянин человек

Внимание! Время в таблицах - всемирное. Для получения местного времени необходимо прибавить поправку, которая равна -3 ч.

Смотрите также архив погоды в соседних городах и на ближайших метеорологических станциях:

Погода в Патосе (Параиба, Бразилия) (7 км)
Погода в Кайко (Риу-Гранди-ду-Норти, Бразилия) (72 км)
Погода в Монтейро (Параиба, Бразилия) (93 км)
Погода в Сан-Гонкало (Параиба, Бразилия) (118 км)
Погода в Кабасейрасе (Параиба, Бразилия) (118 км)
Погода в Триунфу (, Бразилия) (128 км)
Погода в Серра-Тальяде (, Бразилия) (149 км)
Погода в Арковерди (, Бразилия) (152 км)
Погода в Кампина-Гранде (Параиба, Бразилия) (152 км)
Погода в Кампина-Гранде (Параиба, Бразилия) (154 км)

Пояснения к столбцам:

Ветер - указаны скорость ветра в м/с - средняя за 10 мин, порывы в срок и между сроками (в фигурных скобках) и направление, откуда дует ветер: С - северный, СВ - северо-восточный, В - восточный, ЮВ - юго-восточный, Ю - южный, ЮЗ - юго-западный, З - западный, СЗ - северо-западный.
Видимость - горизонтальная дальность видимости в метрах или километрах. При видимости от 1 до 10 км при отсутствии осадков обычно наблюдается дымка, при ухудшении видимости до 1 км и менее - туман. В сухую погоду видимость может ухудшаться дымом, пылью или мглою.
Явления - указаны атмосферные явления, наблюдавшиеся в срок или в последний час перед сроком; фигурными скобками обозначены явления, наблюдавшиеся между сроками (за 1-3 часа до срока); квадратными скобками обозначены град или гололедные отложения с указанием их диаметра в мм.
Облачность - указаны через наклонную черту общая и нижняя облачность в баллах и высота нижней границы облаков в метрах; квадратными скобками обозначены формы облаков: Ci - перистые, Cs - перисто-слоистые, Cc - перисто-кучевые, Ac - высококучевые, As - высокослоистые, Sc - слоисто-кучевые, Ns - слоисто-дождевые, Cu - кучевые, Cb - кучево-дождевые. Подробнее классификацию облаков см. в Атласе облаков (PDF).
T - Температура воздуха - температура, измеренная на высоте 2 м над землей.
Td - Температура точки росы - температура, при понижении до которой содержащийся в воздухе водяной пар достигнет насыщения.
f - Относительная влажность воздуха - влажноcть воздуха, измеренная на высоте 2 м над землей.
Te - Эффективная температура - температура, которую ощущает одетый по сезону человек в тени. Характеристика душности погоды. При расчете учитывается влияние влажности воздуха и скорости ветра на теплоощущения человека.
Tes - Эффективная температура на солнце - температура, которую ощущает человек, с поправкой на солнечный нагрев. Характеристика знойности погоды. Зависит от высоты солнца над горизонтом, облачности и скорости ветра. Ночью, в пасмурную погоду, а также при ветре 12 м/с и более поправка равна нулю.
P - Атмосферное давление - приведенное к уровню моря атмосферное давление.
Po - Атмосферное давление - измеренное на уровне метеостанции атмосферное давление.
Tmin - Минимальная температура - минимум температуры воздуха на высоте 2 м над землей.
Tmax - Максимальная температура - максимум температуры воздуха на высоте 2 м над землей.
R - Количество осадков - Количество выпавших осадков за период времени, мм. При наведении курсора мыши на число - период времени, за который выпало указанное количество осадков.
R24 - Количество осадков - Количество выпавших осадков за 24 часа, мм.
S - Снежный покров - Высота снежного покрова, см. При наведении курсора мыши на число - состояние снежного покрова и степень покрытия местности в баллах.